This demonstration page uses our WeatherBlox Daily Observations layout. Learn more.

Left ArrowRight Arrow

38.89511, -77.03637

Hourly Observations for March 25, 2021

Temp ( °F °C ) Dew Point ( °F °C ) Humidity (%) Winds ( mph kmh ) Pressure ( in mb ) Visibility ( mi km ) Precip ( " mm )
12:11 am 00:11 Cloudy 58 14.4 56 13.3 93 93 SSW 5 7 30.04 1017 10 16.0934 0 0
12:28 am 00:28 Cloudy with Drizzle 58 14.4 56 13.3 93 93 SSW 3 6 30.03 1017 6 9.65604 0.001 0.001
12:37 am 00:37 Cloudy with Drizzle 58 14.4 56 13.3 93 93 Calm 30.03 1017 8 12.87472 0.001 0.001
12:52 am 00:52 Cloudy 57 13.9 55 12.8 93 93 NE 3 6 30.03 1017 7 11.26538 0.001 0.001
1:07 am 01:07 Mostly Cloudy 57 13.9 55 12.8 93 93 Calm 30.03 1017 10 16.0934 0 0
1:23 am 01:23 Partly Cloudy 56 13.3 55 12.8 97 97 Calm 30.02 1017 10 16.0934 0 0
1:36 am 01:36 Mostly Clear with Mist and Fog 55 12.8 54 12.2 96 96 S 5 7 30.02 1017 6 9.65604 0 0
1:52 am 01:52 Partly Cloudy with Mist and Fog 55 12.8 54 12.2 96 96 S 6 9 30.02 1017 6 9.65604 0 0
2:03 am 02:03 Mostly Cloudy with Mist and Fog 55 12.8 54 12.2 96 96 S 8 13 30.02 1017 5 8.0467 0 0
2:08 am 02:08 Mostly Cloudy with Mist and Fog 56 13.3 55 12.8 97 97 S 7 11 30.02 1017 1.5 2.41401 0 0
2:15 am 02:15 Cloudy with Mist and Fog 56 13.3 55 12.8 97 97 S 7 11 30.02 1017 1.5 2.41401 0 0
2:25 am 02:25 Mostly Cloudy with Fog 56 13.3 55 12.8 97 97 S 7 11 30.01 1016 0.25 0.402335 0 0
2:39 am 02:39 Mostly Cloudy with Fog 56 13.3 55 12.8 97 97 S 6 9 30.01 1016 0.5 0.80467 0 0
2:52 am 02:52 Cloudy with Mist and Fog 56 13.3 55 12.8 97 97 S 6 9 30.01 1016 1.5 2.41401 0 0
3:12 am 03:12 Cloudy with Mist and Fog 56 13.3 55 12.8 97 97 S 7 11 30.02 1017 2 3.21868 0 0
3:24 am 03:24 Cloudy with Mist and Fog 56 13.3 55 12.8 97 97 S 6 9 30.02 1017 1 1.60934 0 0
3:52 am 03:52 Cloudy with Drizzle 56 13.3 55 12.8 97 97 S 6 9 30.02 1017 0.75 1.207005 0.001 0.001
4:32 am 04:32 Cloudy with Drizzle 56 13.3 55 12.8 97 97 S 7 11 30.02 1017 1.25 2.011675 0.001 0.001
4:52 am 04:52 Cloudy with Drizzle 56 13.3 56 13.3 100 100 S 5 7 30.03 1017 1 1.60934 0.001 0.001
5:36 am 05:36 Cloudy with Drizzle 56 13.3 55 12.8 97 97 S 5 7 30.04 1017 2.5 4.02335 0.001 0.001
5:52 am 05:52 Cloudy with Drizzle 56 13.3 56 13.3 100 100 SSW 3 6 30.05 1018 4 6.43736 0.001 0.001
6:07 am 06:07 Cloudy with Drizzle 57 13.9 56 13.3 96 96 SSE 3 6 30.06 1018 3 4.82802 0.001 0.001
6:17 am 06:17 Cloudy 57 13.9 56 13.3 96 96 Calm 30.06 1018 7 11.26538 0.001 0.001
6:50 am 06:50 Cloudy 55 13 55 13 100 100 E 3 6 30.05 1018 7 11.26538 0.001 0.001
6:52 am 06:52 Cloudy 56 13.3 55 12.8 97 97 E 3 6 30.05 1018 7 11.26538 0.001 0.001
7:52 am 07:52 Cloudy with Mist and Fog 57 13.9 55 12.8 93 93 S 6 9 30.1 1019 4 6.43736 0 0
8:52 am 08:52 Cloudy with Mist and Fog 58 14.4 56 13.3 93 93 NE 5 7 30.1 1019 5 8.0467 0 0
9:52 am 09:52 Cloudy 58 14.4 56 13.3 93 93 SSE 6 9 30.11 1020 7 11.26538 0 0
10:52 am 10:52 Cloudy 58 14.4 56 13.3 93 93 S 6 9 30.11 1020 7 11.26538 0 0
11:52 am 11:52 Cloudy 59 15 57 13.9 93 93 undefined N/A 30.11 1020 7 11.26538 0 0
12:52 pm 12:52 Cloudy 60 15.6 57 13.9 90 90 S 6 9 30.1 1019 7 11.26538 0 0
1:30 pm 13:30 Cloudy 60 15.6 57 13.9 90 90 SSE 5 7 30.1 1019 8 12.87472 0 0
1:32 pm 13:32 Cloudy 60 15.6 57 13.9 90 90 SSE 5 7 30.09 1019 7 11.26538 0 0
1:52 pm 13:52 Cloudy 61 16.1 57 13.9 87 87 SE 5 7 30.08 1019 8 12.87472 0 0
2:06 pm 14:06 Cloudy 62 16.7 57 13.9 84 84 S 3 6 30.07 1018 9 14.48406 0 0
2:44 pm 14:44 Cloudy 63 17.2 58 14.4 84 84 S 7 11 30.08 1019 10 16.0934 0 0
2:52 pm 14:52 Cloudy 63 17.2 58 14.4 84 84 S 8 13 30.07 1018 10 16.0934 0 0
3:52 pm 15:52 Cloudy 65 18.3 58 14.4 78 78 SW 6 9 30.05 1018 10 16.0934 0 0
4:13 pm 16:13 Cloudy 66 18.9 58 14.4 75 75 SE 5 7 30.04 1017 10 16.0934 0 0
4:52 pm 16:52 Cloudy 65 18.3 58 14.4 78 78 S 3 6 30.03 1017 10 16.0934 0 0
5:52 pm 17:52 Cloudy 65 18.3 58 14.4 78 78 S 3 6 30.02 1017 10 16.0934 0 0
6:52 pm 18:52 Cloudy 64 17.8 59 15 84 84 S 3 6 29.98 1015 8 12.87472 0.001 0.001
7:52 pm 19:52 Cloudy 62 16.7 57 13.9 84 84 Calm 29.96 1015 9 14.48406 0 0
8:52 pm 20:52 Cloudy 61 16.1 58 14.4 90 90 ENE 5 7 29.98 1015 8 12.87472 0 0
9:52 pm 21:52 Cloudy 60 15.6 57 13.9 90 90 NE 6 9 29.96 1015 8 12.87472 0 0
10:52 pm 22:52 Cloudy with Mist and Fog 60 15.6 58 14.4 93 93 Calm 29.94 1014 6 9.65604 0 0
11:52 pm 23:52 Cloudy 62 16.7 59 15 90 90 SSW 5 7 29.92 1013 10 16.0934 0 0

Powered by AerisWeather